Weather History for Billings, MT

Change the Weather History Date:

Thursday, March 15, 2012

  Actual Average Record
Temperature  
Mean Temperature 51 °F 38 °F  
Max Temperature 70 °F 48 °F 70 °F (1992)
Min Temperature 32 °F 27 °F -7 °F (1943)
Degree Days  
Heating Degree Days 14 27  
Month to date heating degree days 309 441  
Since 1 July heating degree days 4817 5406  
Cooling Degree Days 0 0  
Month to date cooling degree days 0 0  
Year to date cooling degree days 0 0  
Growing Degree Days 1 (Base 50)    
Moisture  
Dew Point 24 °F    
Average Humidity 41    
Maximum Humidity 61    
Minimum Humidity 20    
Precipitation  
Precipitation 0.00 in 0.03 in 0.27 in (1935)
Month to date precipitation 0.10 0.42  
Year to date precipitation 0.95 1.38  
Snow  
Snow 0.00 in 0.30 in 2.40 in (1935)
Month to date snowfall 1.2 4.8  
Since 1 July snowfall 30.0 39.3  
Snow Depth 0.00 in    
Sea Level Pressure  
Sea Level Pressure 29.86 in    
Wind  
Wind Speed 11 mph (SW)    
Max Wind Speed 29 mph    
Max Gust Speed 39 mph    
Visibility 10 miles    
Events      
T = Trace of Precipitation, MM = Missing Value Source: NWS Daily Summary

Daily Weather History Graph

Daily Weather History Graph

Search for Another Location

Airport:

Trip Planner

Search our weather history database for the weather conditions in past years. The results will help you decide how hot, cold, wet, or windy it might be!

Date:

Astronomy

Mar. 15, 2012 Rise Set
Actual Time 7:25 AM MDT 7:20 PM MDT
Civil Twilight 6:56 AM MDT 7:50 PM MDT
Nautical Twilight 6:21 AM MDT 8:25 PM MDT
Astronomical Twilight 5:46 AM MDT 9:00 PM MDT
Moon 3:14 AM MDT (3/15) 12:23 PM MDT (3/15)
Length of Visible Light 12h 54m
Length of Day
11h 55m
Last Quarter, 42% of the Moon is Illuminated
Mar 15
Last Quarter
Mar 22
New
Mar 30
First Quarter
Apr 6
Full
Apr 13
Last Quarter

Hourly Weather History & Observations

Time (MDT) Temp. Windchill Dew Point Humidity Pressure Visibility Wind Dir Wind Speed Gust Speed Precip Events Conditions
12:53 AM 39.0 °F 35.7 °F 16.0 °F 39% 29.94 in 10.0 mi WSW 4.6 mph - N/A   Clear
1:53 AM 42.1 °F 38.4 °F 16.0 °F 35% 29.93 in 10.0 mi SW 5.8 mph - N/A   Clear
2:53 AM 36.0 °F 28.0 °F 18.0 °F 48% 29.93 in 10.0 mi SSW 11.5 mph - N/A   Clear
3:53 AM 37.0 °F 29.8 °F 19.9 °F 50% 29.92 in 10.0 mi SW 10.4 mph - N/A   Clear
4:53 AM 35.1 °F 32.2 °F 19.9 °F 54% 29.95 in 10.0 mi NNE 3.5 mph - N/A   Partly Cloudy
5:53 AM 34.0 °F 28.0 °F 21.0 °F 59% 29.97 in 10.0 mi SW 6.9 mph - N/A   Partly Cloudy
6:53 AM 33.1 °F 27.7 °F 21.0 °F 61% 29.98 in 10.0 mi SSW 5.8 mph - N/A   Partly Cloudy
7:53 AM 35.1 °F 27.4 °F 21.0 °F 57% 29.99 in 10.0 mi SW 10.4 mph - N/A   Scattered Clouds
8:53 AM 35.1 °F 26.9 °F 21.9 °F 59% 29.99 in 10.0 mi SSW 11.5 mph - N/A   Scattered Clouds
9:53 AM 39.0 °F 32.3 °F 21.9 °F 50% 29.98 in 10.0 mi SSW 10.4 mph - N/A   Scattered Clouds
10:53 AM 45.0 °F 41.2 °F 24.1 °F 44% 29.94 in 10.0 mi South 6.9 mph - N/A   Scattered Clouds
11:53 AM 55.0 °F - 27.0 °F 34% 29.89 in 10.0 mi South 3.5 mph - N/A   Scattered Clouds
12:53 PM 66.9 °F - 27.0 °F 22% 29.83 in 10.0 mi South 15.0 mph 21.9 mph N/A   Partly Cloudy
1:53 PM 69.1 °F - 26.1 °F 20% 29.78 in 10.0 mi SSW 23.0 mph 29.9 mph N/A   Scattered Clouds
2:53 PM 69.1 °F - 26.1 °F 20% 29.78 in 10.0 mi SSW 24.2 mph 34.5 mph N/A   Mostly Cloudy
3:53 PM 69.1 °F - 26.1 °F 20% 29.76 in 10.0 mi WSW 23.0 mph 27.6 mph N/A   Mostly Cloudy
4:53 PM 69.1 °F - 26.1 °F 20% 29.75 in 10.0 mi SW 17.3 mph 27.6 mph N/A   Scattered Clouds
5:53 PM 66.9 °F - 26.1 °F 21% 29.74 in 10.0 mi SW 21.9 mph 33.4 mph N/A   Mostly Cloudy
6:53 PM 64.9 °F - 28.0 °F 25% 29.77 in 10.0 mi West 10.4 mph - N/A   Mostly Cloudy
7:53 PM 63.0 °F - 28.0 °F 27% 29.78 in 10.0 mi WSW 10.4 mph - N/A   Mostly Cloudy
8:53 PM 59.0 °F - 28.9 °F 32% 29.79 in 10.0 mi West 12.7 mph - N/A   Scattered Clouds
9:53 PM 57.0 °F - 28.9 °F 34% 29.77 in 10.0 mi SW 5.8 mph - N/A   Partly Cloudy
10:53 PM 54.0 °F - 28.9 °F 38% 29.75 in 10.0 mi SW 8.1 mph - N/A   Clear
11:53 PM 54.0 °F - 28.9 °F 38% 29.71 in 10.0 mi SSW 4.6 mph - N/A   Clear